Nashville, TN

8:50 PM CST on December 08, 2019 (GMT -0600)
Nashville International

Weather History for KBNA - November, 2019

Change the Weather History Date:

Saturday, November 16, 2019

  Actual Average Record
Temperature  
Mean Temperature 42 °F 50 °F  
Max Temperature 57 °F 60 °F 78 °F (1964)
Min Temperature 28 °F 39 °F 16 °F (1883)
Degree Days  
Heating Degree Days 22    
Month to date heating degree days 343  
Since 1 July heating degree days 486  
Cooling Degree Days 0    
Month to date cooling degree days 0  
Year to date cooling degree days 2280  
Moisture  
Dew Point 27 °F    
Average Humidity 58    
Maximum Humidity 79    
Minimum Humidity 34    
Precipitation  
Precipitation 0.00 in 0.15 in 1.48 in (1927)
Month to date precipitation 1.09 2.04  
Year to date precipitation 54.97 40.74  
Sea Level Pressure  
Sea Level Pressure 30.21 in    
Wind  
Wind Speed 6 mph ()    
Max Wind Speed 14 mph    
Max Gust Speed 18 mph    
Visibility 9.5 miles    
Events Fog    
T = Trace of Precipitation, MM = Missing Value Source: Averaged Metar Reports

Daily Weather History Graph

Daily Weather History Graph

Search for Another Location

Airport or City:

Astronomy

Nov. 16, 2019 Rise Set
Actual Time 6:24 AM CST 4:38 PM CST
Civil Twilight 5:56 AM CST 5:05 PM CST
Nautical Twilight 5:25 AM CST 5:36 PM CST
Astronomical Twilight 4:55 AM CST 6:07 PM CST
Moon 8:13 PM CST (11/16) 10:14 AM CST (11/16)
Length of Visible Light 11h 08m
Length of Day
10h 14m
Waning Gibbous, 82% of the Moon is Illuminated
Nov 16
Waning Gibbous
Nov 19
Last Quarter
Nov 26
New
Dec 4
First Quarter
Dec 11
Full

Hourly Weather History & Observations

Time (CST) Temp. Windchill Dew Point Humidity Pressure Visibility Wind Dir Wind Speed Gust Speed Precip Events Conditions
12:53 AM 30.9 °F 27.5 °F 23.0 °F 72% 30.27 in 10.0 mi NW 3.5 mph - N/A   Clear
1:53 AM 32.0 °F 27.5 °F 23.0 °F 69% 30.26 in 10.0 mi North 4.6 mph - N/A   Clear
3:53 AM 32.0 °F 27.5 °F 23.0 °F 69% 30.25 in 10.0 mi North 4.6 mph - N/A   Clear
5:53 AM 30.0 °F 25.2 °F 23.0 °F 75% 30.27 in 10.0 mi North 4.6 mph - N/A   Clear
6:53 AM 32.0 °F 27.5 °F 23.0 °F 69% 30.29 in 7.0 mi North 4.6 mph - N/A Fog Patches of Fog
7:53 AM 36.0 °F 30.3 °F 26.1 °F 67% 30.30 in 6.0 mi NNE 6.9 mph - N/A   Clear
8:53 AM 39.9 °F 34.5 °F 27.0 °F 60% 30.30 in 9.0 mi NE 8.1 mph - N/A   Clear
9:53 AM 44.1 °F 38.6 °F 27.0 °F 51% 30.28 in 10.0 mi North 10.4 mph - N/A   Clear
10:53 AM 48.0 °F - 27.0 °F 44% 30.25 in 10.0 mi NE 8.1 mph - N/A   Clear
11:53 AM 52.0 °F - 27.0 °F 38% 30.22 in 10.0 mi NNE 10.4 mph - N/A   Clear
1:53 PM 55.9 °F - 28.0 °F 34% 30.16 in 10.0 mi North 11.5 mph 17.3 mph N/A   Partly Cloudy
2:53 PM 55.0 °F - 28.9 °F 37% 30.15 in 10.0 mi North 8.1 mph - N/A   Partly Cloudy
3:53 PM 52.0 °F - 30.0 °F 43% 30.16 in 10.0 mi North 10.4 mph - N/A   Scattered Clouds
4:53 PM 48.0 °F - 30.0 °F 50% 30.17 in 10.0 mi North 9.2 mph - N/A   Scattered Clouds
5:53 PM 45.0 °F 40.6 °F 28.9 °F 53% 30.18 in 10.0 mi North 8.1 mph - N/A   Partly Cloudy
6:53 PM 43.0 °F 38.2 °F 28.9 °F 58% 30.19 in 10.0 mi North 8.1 mph - N/A   Clear
7:53 PM 41.0 °F 36.4 °F 28.9 °F 62% 30.17 in 10.0 mi NNE 6.9 mph - N/A   Clear
8:53 PM 39.9 °F 35.8 °F 28.9 °F 65% 30.17 in 10.0 mi North 5.8 mph - N/A   Clear
9:53 PM 39.9 °F 36.7 °F 28.9 °F 65% 30.16 in 10.0 mi North 4.6 mph - N/A   Clear
10:53 PM 39.0 °F 36.8 °F 28.9 °F 67% 30.14 in 10.0 mi NNE 3.5 mph - N/A   Clear
11:53 PM 34.0 °F - 28.0 °F 79% 30.12 in 8.0 mi Calm Calm - N/A   Clear